Powrót do katalogu

FENGYUN 1C DEB

LostPO
NORAD 36144·DEBRIS·🇨🇳 China

Wystrzelony May 10, 1999 z Taiyuan Satellite Launch Center

Loading…

Następne Przeloty (najbliższe 24 godziny)

TLE

NieaktualneSource: Space-Track

Epoka: Jul 1, 2014, 04:43 UTC

1 36144U 99025DRR 14182.19675061  .00004408  00000-0  25441-2 0  9998
2 36144  98.4132 325.5755 0146948  51.8056  69.7788 14.04214169269145

Śledź FENGYUN 1C DEB w czasie rzeczywistym z AllMySat

Download on the App Store